Date String (YYYY-MM-DD hh:mm:ss) UTC,Instrument flags,Ambient pressure (hPa),Sample flow (lpm),Bypass flow (lpm),Sample temperature (°C),Ambient temperature (°C),ASC tube jacket temperature (°C),LED temperature (°C),Box temperature (°C),Sample RH (%),Span deviation,Mass concentration (μg/m³),Mass concentration (μg/m³),Mass concentration (μg/m³)
DateTimeUTC,F1_M11,P_M11,Q1_M11,Q2_M11,T1_M11,T2_M11,T3_M11,T4_M11,T5_M11,U1_M11,ZSPAN_M11,X0_M11,X2_M11,X1_M11
2022-10-25 00:00:00,,0820.6,4.99,0.00,25.0,23.4,00.0,33.9,26.9,08.3,0000.0,0005.27,0001.92,0001.57
2022-10-25 00:01:00,,0820.6,5.00,0.00,25.0,23.4,00.0,33.9,26.9,08.3,0000.0,0005.45,0001.94,0001.56
2022-10-25 00:02:00,,0820.6,4.99,0.00,25.0,23.4,00.0,33.9,26.8,08.3,0000.0,0005.46,0001.95,0001.56
2022-10-25 00:03:00,,0820.6,5.00,0.00,25.0,23.3,00.0,33.9,26.8,08.3,0000.0,0005.63,0001.96,0001.57
2022-10-25 00:04:00,,0820.6,5.00,0.00,25.0,23.3,00.0,33.9,26.8,08.3,0000.0,0005.50,0001.97,0001.57
2022-10-25 00:05:00,,0820.6,5.00,0.00,25.0,23.3,00.0,33.9,26.8,08.3,0000.0,0005.66,0002.01,0001.57
2022-10-25 00:06:00,,0820.5,5.00,0.00,25.0,23.3,00.0,33.9,26.7,08.3,0000.0,0005.76,0002.02,0001.56
2022-10-25 00:07:00,,0820.4,5.01,0.00,25.0,23.3,00.0,33.9,26.8,08.3,0000.0,0005.69,0002.00,0001.55
2022-10-25 00:08:00,,0820.5,5.00,0.00,25.0,23.3,00.0,33.9,26.7,08.2,0000.0,0005.57,0001.93,0001.53
2022-10-25 00:09:00,,0820.5,5.00,0.00,25.0,23.3,00.0,33.9,26.7,08.2,0000.0,0005.54,0001.90,0001.53
2022-10-25 00:10:00,,0820.4,5.00,0.00,25.0,23.3,00.0,33.9,26.7,08.2,0000.0,0004.57,0001.88,0001.51
2022-10-25 00:11:00,,0820.4,5.00,0.00,24.9,23.3,00.0,33.9,26.7,08.2,0000.0,0003.95,0001.83,0001.50
2022-10-25 00:12:00,,0820.5,5.00,0.00,24.9,23.2,00.0,33.8,26.7,08.2,0000.0,0003.67,0001.77,0001.49
2022-10-25 00:13:00,,0820.6,5.01,0.00,24.9,23.2,00.0,33.8,26.7,08.2,0000.0,0003.56,0001.73,0001.49
2022-10-25 00:14:00,,0820.6,5.02,0.00,24.9,23.2,00.0,33.8,26.7,08.2,0000.0,0003.23,0001.72,0001.48
2022-10-25 00:15:00,,0820.6,5.00,0.00,24.9,23.2,00.0,33.8,26.7,08.2,0000.0,0002.77,0001.70,0001.47
2022-10-25 00:16:00,,0820.6,5.00,0.00,24.9,23.2,00.0,33.8,26.7,08.2,0000.0,0002.66,0001.68,0001.47
2022-10-25 00:17:00,,0820.6,4.99,0.00,24.9,23.2,00.0,33.8,26.6,08.1,0000.0,0002.53,0001.66,0001.46
2022-10-25 00:18:00,,0820.6,5.00,0.00,24.9,23.2,00.0,33.8,26.6,08.1,0000.0,0002.48,0001.63,0001.45
2022-10-25 00:19:00,,0820.6,5.00,0.00,24.9,23.2,00.0,33.8,26.7,08.1,0000.0,0002.57,0001.65,0001.45
2022-10-25 00:20:00,,0820.6,5.00,0.00,24.9,23.2,00.0,33.8,26.7,08.2,0000.0,0002.50,0001.64,0001.44
2022-10-25 00:21:00,,0820.7,5.01,0.00,24.9,23.2,00.0,33.8,26.7,08.1,0000.0,0003.23,0001.65,0001.44
2022-10-25 00:22:00,,0820.6,5.00,0.00,24.9,23.2,00.0,33.8,26.7,08.2,0000.0,0003.55,0001.67,0001.45
2022-10-25 00:23:00,,0820.6,4.98,0.00,24.9,23.3,00.0,33.8,26.7,08.2,0000.0,0003.58,0001.68,0001.45
2022-10-25 00:24:00,,0820.6,5.00,0.00,24.9,23.3,00.0,33.8,26.7,08.2,0000.0,0003.59,0001.68,0001.45
2022-10-25 00:25:00,,0820.6,5.01,0.00,24.9,23.3,00.0,33.8,26.7,08.1,0000.0,0003.39,0001.64,0001.44
2022-10-25 00:26:00,,0820.6,5.01,0.00,24.9,23.2,00.0,33.8,26.6,08.1,0000.0,0003.27,0001.64,0001.44
2022-10-25 00:27:00,,0820.6,5.00,0.00,24.9,23.2,00.0,33.8,26.6,08.1,0000.0,0003.21,0001.62,0001.45
2022-10-25 00:28:00,,0820.6,5.00,0.00,24.9,23.2,00.0,33.8,26.7,08.1,0000.0,0003.27,0001.64,0001.45
2022-10-25 00:29:00,,0820.6,5.01,0.00,24.9,23.2,00.0,33.8,26.7,08.1,0000.0,0003.49,0001.69,0001.46
2022-10-25 00:30:00,,0820.6,5.00,0.00,24.9,23.2,00.0,33.7,26.7,08.1,0000.0,0003.47,0001.70,0001.47
2022-10-25 00:31:00,,0820.6,5.01,0.00,24.9,23.2,00.0,33.7,26.7,08.1,0000.0,0003.53,0001.69,0001.47
2022-10-25 00:32:00,,0820.6,5.00,0.00,24.9,23.3,00.0,33.7,26.7,08.1,0000.0,0003.00,0001.71,0001.48
2022-10-25 00:33:00,,0820.7,5.00,0.00,24.9,23.3,00.0,33.7,26.7,08.1,0000.0,0002.60,0001.72,0001.48
2022-10-25 00:34:00,,0820.7,5.00,0.00,24.8,23.3,00.0,33.7,26.6,08.1,0000.0,0002.98,0001.75,0001.49
2022-10-25 00:35:00,,0820.7,5.00,0.00,24.9,23.3,00.0,33.7,26.7,08.1,0000.0,0003.13,0001.79,0001.49
2022-10-25 00:36:00,,0820.8,5.00,0.00,24.9,23.3,00.0,33.7,26.7,08.0,0000.0,0003.17,0001.80,0001.50
2022-10-25 00:37:00,,0820.8,5.01,0.00,24.9,23.3,00.0,33.7,26.7,08.1,0000.0,0003.22,0001.81,0001.51
2022-10-25 00:38:00,,0820.8,4.99,0.00,24.8,23.2,00.0,33.7,26.7,08.1,0000.0,0003.30,0001.83,0001.52
2022-10-25 00:39:00,,0820.8,5.00,0.00,24.8,23.3,00.0,33.7,26.7,08.1,0000.0,0003.26,0001.83,0001.52
2022-10-25 00:40:00,,0820.9,5.00,0.00,24.9,23.3,00.0,33.7,26.7,08.1,0000.0,0003.03,0001.77,0001.52
2022-10-25 00:41:00,,0820.9,5.00,0.00,24.8,23.3,00.0,33.7,26.7,08.1,0000.0,0002.95,0001.75,0001.52
2022-10-25 00:42:00,,0820.9,5.00,0.00,24.9,23.3,00.0,33.7,26.7,08.1,0000.0,0002.88,0001.76,0001.53
2022-10-25 00:43:00,,0820.9,5.00,0.00,24.8,23.3,00.0,33.7,26.8,08.1,0000.0,0002.99,0001.79,0001.53
2022-10-25 00:44:00,,0820.9,5.02,0.00,24.9,23.3,00.0,33.7,26.8,08.1,0000.0,0002.97,0001.79,0001.54
2022-10-25 00:45:00,,0820.9,4.99,0.00,24.9,23.3,00.0,33.7,26.8,08.1,0000.0,0002.76,0001.75,0001.54
2022-10-25 00:46:00,,0821.0,5.00,0.00,24.9,23.3,00.0,33.7,26.7,08.1,0000.0,0002.71,0001.76,0001.56
2022-10-25 00:47:00,,0820.9,5.00,0.00,24.8,23.2,00.0,33.7,26.6,08.2,0000.0,0002.69,0001.76,0001.57
2022-10-25 00:48:00,,0820.9,5.00,0.00,24.8,23.2,00.0,33.7,26.6,08.2,0000.0,0002.73,0001.79,0001.59
2022-10-25 00:49:00,,0820.9,5.00,0.00,24.8,23.2,00.0,33.7,26.6,08.2,0000.0,0002.67,0001.79,0001.59
2022-10-25 00:50:00,,0821.0,5.00,0.00,24.8,23.2,00.0,33.7,26.6,08.2,0000.0,0002.74,0001.82,0001.59
2022-10-25 00:51:00,,0821.0,5.00,0.00,24.8,23.1,00.0,33.7,26.6,08.2,0000.0,0002.76,0001.84,0001.60
2022-10-25 00:52:00,,0821.0,5.00,0.00,24.8,23.1,00.0,33.7,26.6,08.2,0000.0,0003.15,0001.87,0001.61
2022-10-25 00:53:00,,0821.0,4.99,0.00,24.8,23.2,00.0,33.7,26.6,08.2,0000.0,0003.41,0001.90,0001.63
2022-10-25 00:54:00,,0821.0,5.00,0.00,24.8,23.1,00.0,33.7,26.6,08.1,0000.0,0004.23,0001.90,0001.64
2022-10-25 00:55:00,,0821.0,5.00,0.00,24.8,23.1,00.0,33.7,26.6,08.1,0000.0,0004.53,0001.90,0001.64
2022-10-25 00:56:00,,0821.0,5.00,0.00,24.8,23.1,00.0,33.7,26.6,08.1,0000.0,0004.48,0001.93,0001.66
2022-10-25 00:57:00,,0821.0,5.00,0.00,24.8,23.1,00.0,33.7,26.6,08.1,0000.0,0004.34,0001.93,0001.67
2022-10-25 00:58:00,,0821.0,5.00,0.00,24.8,23.1,00.0,33.7,26.5,08.1,0000.0,0004.32,0001.92,0001.67
2022-10-25 00:59:00,,0821.0,5.01,0.00,24.8,23.1,00.0,33.7,26.6,08.0,0000.0,0004.35,0001.92,0001.67
